#�ϑ�����,���ϕ���,���ϕ���,�ő啗��,�ő啗����������,�ő�u�ԕ���,�ő�u�ԕ�����������
#(�N����),(m/s)   ,(16����),(m/s)   ,(16����)        ,(m/s)       ,(16����)            
2018/3/30 0:01,1.9,2,2,2,2.5,14
2018/3/30 0:02,1.6,2,1.8,2,1,16
2018/3/30 0:03,1.4,2,1.5,2,2.7,2
2018/3/30 0:04,1.4,2,1.4,2,5.5,2
2018/3/30 0:05,1.4,2,1.4,2,3.9,3
2018/3/30 0:06,1.3,1,1.4,2,2.9,3
2018/3/30 0:07,1.2,1,1.3,2,1,3
2018/3/30 0:08,1.3,2,1.3,2,1.8,3
2018/3/30 0:09,1.2,1,1.3,2,0.5,2
2018/3/30 0:10,1.2,2,1.2,2,1.6,3
2018/3/30 0:11,1.2,2,1.2,2,1.5,8
2018/3/30 0:12,1.2,3,1.2,2,1.5,9
2018/3/30 0:13,1.2,3,1.3,2,2.2,8
2018/3/30 0:14,1,4,1.2,2,1.8,8
2018/3/30 0:15,0.8,5,1,2,1.4,8
2018/3/30 0:16,0.8,6,0.8,1,1.6,9
2018/3/30 0:17,0.9,7,0.9,1,0.9,6
2018/3/30 0:18,0.8,7,0.9,2,1.8,5
2018/3/30 0:19,0.9,7,0.9,3,2.6,5
2018/3/30 0:20,1.2,7,1.2,3,4.2,6
2018/3/30 0:21,1.3,7,1.3,3,4.2,6
2018/3/30 0:22,1.3,7,1.3,3,1.5,3
2018/3/30 0:23,1.3,7,1.3,7,2.2,6
2018/3/30 0:24,1.2,6,1.3,7,1.4,8
2018/3/30 0:25,1.4,7,1.4,7,3.2,8
2018/3/30 0:26,1.4,7,1.4,7,3.1,9
2018/3/30 0:27,1.5,7,1.5,7,2.6,7
2018/3/30 0:28,1.5,7,1.6,7,2,8
2018/3/30 0:29,1.4,7,1.5,7,0.9,9
2018/3/30 0:30,1.2,7,1.4,7,1.3,6
2018/3/30 0:31,1,7,1.2,7,1.5,5
2018/3/30 0:32,1.1,7,1.1,7,2,8
2018/3/30 0:33,1.1,8,1.1,7,3.1,9
2018/3/30 0:34,1.2,8,1.2,7,2,9
2018/3/30 0:35,1,8,1.2,7,0.8,12
2018/3/30 0:36,0.9,8,1,7,1.4,13
2018/3/30 0:37,0.8,9,0.9,7,1.1,13
2018/3/30 0:38,0.8,8,0.8,7,2,16
2018/3/30 0:39,1,16,1,7,3.5,16
2018/3/30 0:40,1.2,16,1.2,7,2.9,1
2018/3/30 0:41,1.3,16,1.3,16,2.9,1
2018/3/30 0:42,1.4,16,1.4,16,2,2
2018/3/30 0:43,1.2,15,1.4,16,0.9,16
2018/3/30 0:44,1.2,16,1.2,16,0.9,15
2018/3/30 0:45,1.2,16,1.2,16,0.6,14
2018/3/30 0:46,1.1,16,1.2,16,0.3,8
2018/3/30 0:47,1.1,16,1.1,16,1.1,2
2018/3/30 0:48,1.1,16,1.1,16,1.1,2
2018/3/30 0:49,0.8,16,1,16,0.9,5
2018/3/30 0:50,0.7,15,0.8,16,0.8,12
2018/3/30 0:51,0.5,14,0.6,16,1.3,11
2018/3/30 0:52,0.5,13,0.5,16,1.1,12
2018/3/30 0:53,0.6,13,0.6,15,2.6,15
2018/3/30 0:54,0.8,13,0.8,16,2.7,15
2018/3/30 0:55,0.9,13,0.9,16,2.2,14
2018/3/30 0:56,1,14,1,16,1.9,14
2018/3/30 0:57,1.1,14,1.1,16,2,15
2018/3/30 0:58,1,13,1.1,14,0.4,16
2018/3/30 0:59,1.2,13,1.2,13,3.2,10
2018/3/30 1:00,1.3,13,1.3,13,2.2,10
2018/3/30 1:01,1.3,13,1.3,13,2.4,9
2018/3/30 1:02,1.3,12,1.3,13,1.9,10
2018/3/30 1:03,1.3,12,1.3,13,1.9,9
2018/3/30 1:04,1.2,11,1.3,13,2.2,9
2018/3/30 1:05,1.2,11,1.2,13,2.5,10
2018/3/30 1:06,1.1,11,1.2,13,2,10
2018/3/30 1:07,1,10,1.1,13,0.3,9
2018/3/30 1:08,1,10,1,13,0.6,7
2018/3/30 1:09,0.8,9,1,13,0.9,7
2018/3/30 1:10,0.9,9,0.9,13,2,8
2018/3/30 1:11,0.9,8,0.9,13,1.8,5
2018/3/30 1:12,0.9,8,0.9,12,1.9,5
2018/3/30 1:13,0.9,7,0.9,12,2.1,6
2018/3/30 1:14,0.9,7,0.9,11,2,6
2018/3/30 1:15,0.9,7,1,11,2,7
2018/3/30 1:16,1,7,1,10,1.8,6
2018/3/30 1:17,1.1,7,1.1,7,1.6,7
2018/3/30 1:18,1.1,6,1.1,7,1.5,6
2018/3/30 1:19,1.2,6,1.2,6,1.9,5
2018/3/30 1:20,1.2,6,1.2,6,2,7
2018/3/30 1:21,1.2,6,1.2,6,1.6,6
2018/3/30 1:22,1.1,6,1.2,6,1.5,4
2018/3/30 1:23,1.1,6,1.1,6,2.4,8
2018/3/30 1:24,1.2,6,1.2,6,2.6,8
2018/3/30 1:25,1.2,6,1.2,6,2.1,8
2018/3/30 1:26,1.1,6,1.2,6,1.8,8
2018/3/30 1:27,1.2,6,1.2,6,1.5,16
2018/3/30 1:28,1.2,6,1.2,6,2.4,16
2018/3/30 1:29,1.2,5,1.2,6,2.4,16
2018/3/30 1:30,1.3,4,1.3,5,2.2,3
2018/3/30 1:31,1.3,3,1.3,5,2.6,1
2018/3/30 1:32,1.3,3,1.3,5,1.6,2
2018/3/30 1:33,1.2,2,1.3,5,0.8,2
2018/3/30 1:34,1,2,1.1,5,0.3,8
2018/3/30 1:35,0.9,2,1,5,0.3,2
2018/3/30 1:36,0.8,2,0.9,5,1,16
2018/3/30 1:37,0.8,2,0.9,5,1.3,16
2018/3/30 1:38,0.7,2,0.8,5,1,10
2018/3/30 1:39,0.6,3,0.7,5,0.4,9
2018/3/30 1:40,0.5,3,0.6,4,1.4,4
2018/3/30 1:41,0.4,3,0.5,3,1.1,16
2018/3/30 1:42,0.4,3,0.4,3,1.3,14
2018/3/30 1:43,0.5,6,0.5,2,2.1,12
2018/3/30 1:44,0.5,13,0.5,2,1.5,9
2018/3/30 1:45,0.6,12,0.6,2,1.3,16
2018/3/30 1:46,0.7,13,0.7,2,1.8,1
2018/3/30 1:47,0.8,15,0.8,2,2.6,2
2018/3/30 1:48,0.8,1,0.8,14,2,1
2018/3/30 1:49,0.9,1,0.9,1,1.4,2
2018/3/30 1:50,1,1,1,1,3,8
2018/3/30 1:51,1.3,2,1.3,1,6.5,8
2018/3/30 1:52,1.7,7,1.7,7,6.5,8
2018/3/30 1:53,1.7,6,1.7,7,4.8,9
2018/3/30 1:54,1.7,5,1.7,7,1.4,6
2018/3/30 1:55,1.7,5,1.7,7,1.1,11
2018/3/30 1:56,1.7,7,1.7,7,2.4,15
2018/3/30 1:57,1.7,9,1.7,7,3,16
2018/3/30 1:58,1.7,10,1.7,7,2.7,15
2018/3/30 1:59,1.8,11,1.8,10,2.7,16
2018/3/30 2:00,1.7,12,1.8,10,1,12
2018/3/30 2:01,1.3,12,1.7,10,0.6,12
2018/3/30 2:02,1,13,1.3,10,0.1,10
2018/3/30 2:03,0.8,14,1,10,0,1
2018/3/30 2:04,0.8,13,0.8,10,1.5,8
2018/3/30 2:05,0.8,13,0.8,10,1.9,8
2018/3/30 2:06,1,12,1,10,4.3,9
2018/3/30 2:07,1.2,12,1.2,10,4.9,9
2018/3/30 2:08,1.3,11,1.3,10,4.1,9
2018/3/30 2:09,1.4,10,1.4,11,3.7,8
2018/3/30 2:10,1.5,9,1.5,12,3.1,8
2018/3/30 2:11,1.7,9,1.7,9,3.7,8
2018/3/30 2:12,1.9,9,1.9,9,2.5,9
2018/3/30 2:13,2,8,2,9,2,9
2018/3/30 2:14,2,8,2.1,8,0.9,16
2018/3/30 2:15,2,8,2,8,1.4,16
2018/3/30 2:16,1.8,8,2,8,1.6,14
2018/3/30 2:17,1.5,9,1.8,8,1.9,15
2018/3/30 2:18,1.3,10,1.5,8,1.5,1
2018/3/30 2:19,1.2,11,1.3,8,2,11
2018/3/30 2:20,1.2,12,1.2,8,2.5,10
2018/3/30 2:21,1.2,12,1.2,8,3,9
2018/3/30 2:22,1.1,12,1.2,8,3.3,8
2018/3/30 2:23,1.1,12,1.2,8,2.7,8
2018/3/30 2:24,1.3,11,1.3,8,2.9,9
2018/3/30 2:25,1.3,11,1.3,8,1.6,12
2018/3/30 2:26,1.3,11,1.3,8,1.9,12
2018/3/30 2:27,1.3,11,1.3,9,1.8,12
2018/3/30 2:28,1.3,11,1.3,10,1.4,14
2018/3/30 2:29,1.3,11,1.3,11,1.6,14
2018/3/30 2:30,1.2,12,1.3,11,1.3,14
2018/3/30 2:31,1.1,12,1.2,11,1.5,1
2018/3/30 2:32,1,13,1.1,11,1.8,1
2018/3/30 2:33,1.1,14,1.1,11,2.2,1
2018/3/30 2:34,1,14,1.1,11,2.4,16
2018/3/30 2:35,1.2,15,1.2,11,3,14
2018/3/30 2:36,1.4,15,1.4,15,4.4,13
2018/3/30 2:37,1.5,15,1.5,15,4.1,13
2018/3/30 2:38,1.7,15,1.7,15,3.5,15
2018/3/30 2:39,1.8,15,1.8,15,3.5,14
2018/3/30 2:40,2,15,2,15,3.6,15
2018/3/30 2:41,2.2,15,2.2,15,3.9,15
2018/3/30 2:42,2.4,15,2.4,15,4.1,15
2018/3/30 2:43,2.4,14,2.4,15,4.1,14
2018/3/30 2:44,2.4,14,2.4,15,2.5,11
2018/3/30 2:45,2.2,14,2.4,15,1.4,13
2018/3/30 2:46,2.1,14,2.2,15,2.7,7
2018/3/30 2:47,1.8,14,2,15,0.8,11
2018/3/30 2:48,1.6,14,1.8,15,0.8,2
2018/3/30 2:49,1.4,14,1.6,15,0.8,15
2018/3/30 2:50,1.2,14,1.4,15,0.6,15
2018/3/30 2:51,0.9,13,1.2,15,1.6,13
2018/3/30 2:52,0.8,13,0.9,15,2.7,11
2018/3/30 2:53,0.8,12,0.8,14,2.7,9
2018/3/30 2:54,1,12,1,14,4.4,11
2018/3/30 2:55,1.2,12,1.2,14,4.2,10
2018/3/30 2:56,1.4,12,1.4,14,3.6,10
2018/3/30 2:57,1.6,12,1.6,14,3.2,13
2018/3/30 2:58,1.8,12,1.8,12,2,13
2018/3/30 2:59,1.9,11,1.9,12,2.4,11
2018/3/30 3:00,1.9,11,1.9,12,1.5,11
2018/3/30 3:01,1.9,11,1.9,12,0.9,11
2018/3/30 3:02,1.8,11,1.9,12,1.4,8
2018/3/30 3:03,1.8,11,1.8,12,1.8,4
2018/3/30 3:04,1.6,11,1.8,12,2.4,3
2018/3/30 3:05,1.4,11,1.6,12,2,8
2018/3/30 3:06,1.4,10,1.4,12,2.5,9
2018/3/30 3:07,1.3,9,1.4,12,3,9
2018/3/30 3:08,1.4,9,1.4,12,4.4,9
2018/3/30 3:09,1.4,9,1.4,11,2.6,10
2018/3/30 3:10,1.4,9,1.4,11,1.9,11
2018/3/30 3:11,1.5,9,1.5,11,2.1,12
2018/3/30 3:12,1.6,10,1.6,11,2.4,11
2018/3/30 3:13,1.7,10,1.7,11,2.7,12
2018/3/30 3:14,1.8,10,1.8,10,2.5,12
2018/3/30 3:15,1.8,11,1.8,10,2.2,12
2018/3/30 3:16,1.7,12,1.8,10,1.5,12
2018/3/30 3:17,1.6,12,1.7,10,0.9,14
2018/3/30 3:18,1.4,12,1.6,10,1,10
2018/3/30 3:19,1.3,12,1.4,10,1.1,7
2018/3/30 3:20,1.2,12,1.3,10,1,6
2018/3/30 3:21,1.1,12,1.2,10,0.5,16
2018/3/30 3:22,0.9,12,1,10,1,7
2018/3/30 3:23,0.7,11,0.9,10,0.8,9
2018/3/30 3:24,0.6,10,0.7,11,0.5,6
2018/3/30 3:25,0.5,8,0.5,11,2.4,9
2018/3/30 3:26,0.6,8,0.6,12,2.7,9
2018/3/30 3:27,0.7,8,0.7,12,3.5,9
2018/3/30 3:28,1,8,1,12,4.1,9
2018/3/30 3:29,1.2,8,1.2,12,3.9,10
2018/3/30 3:30,1.3,8,1.3,8,3.3,10
2018/3/30 3:31,1.4,9,1.4,9,1.3,9
2018/3/30 3:32,1.3,9,1.4,9,1,1
2018/3/30 3:33,1.3,9,1.3,9,1.3,1
2018/3/30 3:34,1.4,10,1.4,9,1.6,3
2018/3/30 3:35,1.4,10,1.4,9,1.8,3
2018/3/30 3:36,1.3,8,1.4,9,0.9,3
2018/3/30 3:37,1.1,4,1.3,9,0.1,3
2018/3/30 3:38,0.9,2,1.1,9,0.5,11
2018/3/30 3:39,0.6,1,0.8,9,1,16
2018/3/30 3:40,0.5,1,0.6,9,1.5,16
2018/3/30 3:41,0.6,1,0.6,9,1.6,15
2018/3/30 3:42,0.7,1,0.7,9,1.9,16
2018/3/30 3:43,0.8,1,0.8,9,1.8,15
2018/3/30 3:44,0.8,16,0.8,10,1.9,14
2018/3/30 3:45,0.8,15,0.8,9,1.5,14
2018/3/30 3:46,0.8,15,0.8,8,1.3,14
2018/3/30 3:47,0.9,15,0.9,4,1.6,1
2018/3/30 3:48,1,15,1,15,2.4,1
2018/3/30 3:49,1.1,16,1.1,15,2.2,2
2018/3/30 3:50,1.2,16,1.2,16,1.9,3
2018/3/30 3:51,1.2,16,1.2,16,1.3,3
2018/3/30 3:52,1.1,1,1.2,16,0.9,7
2018/3/30 3:53,1.1,1,1.1,16,2.9,9
2018/3/30 3:54,1.3,2,1.3,1,3.9,9
2018/3/30 3:55,1.3,3,1.3,1,3.1,7
2018/3/30 3:56,1.4,4,1.4,4,2.9,1
2018/3/30 3:57,1.6,4,1.6,4,3.3,1
2018/3/30 3:58,1.6,4,1.6,4,3.3,1
2018/3/30 3:59,1.5,4,1.6,4,1.3,10
2018/3/30 4:00,1.4,8,1.5,4,2,12
2018/3/30 4:01,1.5,10,1.5,4,2,12
2018/3/30 4:02,1.7,11,1.7,11,2,11
2018/3/30 4:03,1.7,11,1.7,11,1.8,11
2018/3/30 4:04,1.6,12,1.7,11,2.1,10
2018/3/30 4:05,1.6,12,1.6,11,1.9,10
2018/3/30 4:06,1.4,12,1.6,11,1.3,10
2018/3/30 4:07,1.2,11,1.4,11,0.8,5
2018/3/30 4:08,1.1,10,1.2,11,0.6,6
2018/3/30 4:09,1.1,10,1.1,11,1.6,4
2018/3/30 4:10,1.2,9,1.2,11,2.4,8
2018/3/30 4:11,1.2,9,1.2,11,3.1,8
2018/3/30 4:12,1.1,8,1.2,11,1,6
2018/3/30 4:13,1,8,1.1,11,1.1,11
2018/3/30 4:14,0.9,8,1,12,1.3,15
2018/3/30 4:15,0.8,6,0.8,12,1.1,16
2018/3/30 4:16,0.8,5,0.8,12,0.8,1
2018/3/30 4:17,0.8,6,0.8,11,1.1,8
2018/3/30 4:18,0.9,8,0.9,10,1.6,10
2018/3/30 4:19,0.9,10,0.9,10,1.5,10
2018/3/30 4:20,0.9,11,0.9,9,2.1,10
2018/3/30 4:21,0.8,11,0.8,9,2.2,10
2018/3/30 4:22,0.9,11,0.9,8,1.9,10
2018/3/30 4:23,0.9,11,0.9,8,1.6,13
2018/3/30 4:24,0.9,11,0.9,7,1.1,15
2018/3/30 4:25,1,11,1,11,2.2,13
2018/3/30 4:26,1.1,11,1.1,11,2.2,11
2018/3/30 4:27,1.1,11,1.1,11,1.8,2
2018/3/30 4:28,1.2,12,1.2,11,3.1,1
2018/3/30 4:29,1.4,13,1.4,13,3.1,16
2018/3/30 4:30,1.4,14,1.4,13,2.5,16
2018/3/30 4:31,1.3,14,1.3,13,1,2
2018/3/30 4:32,1.3,15,1.3,13,1.5,2
2018/3/30 4:33,1.4,16,1.4,13,2.4,16
2018/3/30 4:34,1.4,16,1.4,13,1.1,3
2018/3/30 4:35,1.3,1,1.4,13,0.9,4
2018/3/30 4:36,1.2,1,1.2,13,1,4
2018/3/30 4:37,1.2,1,1.2,13,1.4,1
2018/3/30 4:38,1,1,1.2,13,1.1,2
2018/3/30 4:39,0.9,1,1,13,0.9,2
2018/3/30 4:40,0.8,2,0.8,16,1,2
2018/3/30 4:41,0.8,2,0.8,16,1.8,4
2018/3/30 4:42,0.8,2,0.8,16,1,5
2018/3/30 4:43,0.7,3,0.7,16,1.6,10
2018/3/30 4:44,0.8,3,0.8,16,2.4,9
2018/3/30 4:45,0.9,3,0.9,1,1.8,11
2018/3/30 4:46,0.9,3,0.9,1,1.3,14
2018/3/30 4:47,0.9,2,0.9,1,2,15
2018/3/30 4:48,0.9,1,0.9,1,1.6,15
2018/3/30 4:49,0.9,2,0.9,3,1,2
2018/3/30 4:50,0.8,2,0.9,3,0.9,3
2018/3/30 4:51,0.8,1,0.8,3,0.6,3
2018/3/30 4:52,0.8,16,0.8,3,1.3,11
2018/3/30 4:53,0.9,15,0.9,3,2.2,11
2018/3/30 4:54,0.9,15,0.9,3,2.9,12
2018/3/30 4:55,0.9,15,0.9,3,1.9,11
2018/3/30 4:56,0.9,15,0.9,3,1.4,13
2018/3/30 4:57,0.9,15,0.9,2,1.3,13
2018/3/30 4:58,0.9,14,0.9,1,1.5,14
2018/3/30 4:59,1,13,1,13,1.6,12
2018/3/30 5:00,1,13,1,13,1.3,13
2018/3/30 5:01,1.1,13,1.1,13,1.4,15
2018/3/30 5:02,1.2,13,1.2,13,1.5,15
2018/3/30 5:03,1.1,13,1.2,13,1.8,15
2018/3/30 5:04,1,14,1.1,13,2,15
2018/3/30 5:05,1,14,1,13,1.5,15
2018/3/30 5:06,1,14,1,13,0.5,15
2018/3/30 5:07,0.9,14,1,13,1,3
2018/3/30 5:08,0.9,15,0.9,13,1.1,6
2018/3/30 5:09,0.9,15,0.9,13,1.4,8
2018/3/30 5:10,0.9,15,0.9,13,1.6,9
2018/3/30 5:11,0.8,14,0.9,13,0.5,8
2018/3/30 5:12,0.7,12,0.8,13,0.6,13
2018/3/30 5:13,0.7,11,0.7,13,0.8,13
2018/3/30 5:14,0.6,9,0.7,14,0.8,13
2018/3/30 5:15,0.5,7,0.6,14,0.8,2
2018/3/30 5:16,0.6,7,0.6,14,1.3,8
2018/3/30 5:17,0.5,8,0.6,14,1,8
2018/3/30 5:18,0.5,8,0.5,15,1,6
2018/3/30 5:19,0.4,9,0.5,15,0.8,8
2018/3/30 5:20,0.4,9,0.4,15,1.8,9
2018/3/30 5:21,0.5,10,0.5,15,2,9
2018/3/30 5:22,0.6,10,0.6,12,1.4,10
2018/3/30 5:23,0.7,9,0.7,11,1.5,10
2018/3/30 5:24,0.7,9,0.7,9,1.1,10
2018/3/30 5:25,0.8,10,0.8,10,1.4,10
2018/3/30 5:26,0.8,10,0.8,10,1.1,11
2018/3/30 5:27,0.9,10,0.9,10,1.4,11
2018/3/30 5:28,0.9,11,0.9,10,1.3,11
2018/3/30 5:29,0.9,11,0.9,10,0.8,13
2018/3/30 5:30,0.9,11,0.9,10,0.9,15
2018/3/30 5:31,0.9,12,0.9,10,2,15
2018/3/30 5:32,0.9,12,0.9,10,2.5,15
2018/3/30 5:33,0.8,12,0.9,10,0.9,12
2018/3/30 5:34,0.8,13,0.8,10,1.5,1
2018/3/30 5:35,0.9,14,0.9,10,2.4,1
2018/3/30 5:36,1,14,1,14,2.7,1
2018/3/30 5:37,1.1,15,1.1,15,2.2,1
2018/3/30 5:38,1.1,15,1.1,15,1.5,10
2018/3/30 5:39,1.1,15,1.1,15,1.6,11
2018/3/30 5:40,1.3,15,1.3,15,3.6,16
2018/3/30 5:41,1.2,16,1.3,15,1.9,15
2018/3/30 5:42,1.2,16,1.2,15,1.8,10
2018/3/30 5:43,1.3,15,1.3,15,2.2,11
2018/3/30 5:44,1.2,14,1.3,15,0.6,13
2018/3/30 5:45,1.1,14,1.2,15,3.2,5
2018/3/30 5:46,1.1,14,1.2,15,3.3,2
2018/3/30 5:47,1.1,13,1.1,15,2.1,4
2018/3/30 5:48,1.2,14,1.2,15,3.1,7
2018/3/30 5:49,1.3,4,1.3,15,3,5
2018/3/30 5:50,1.2,6,1.3,15,2.2,6
2018/3/30 5:51,1.1,6,1.2,15,0.4,2
2018/3/30 5:52,1.1,5,1.1,15,0.9,5
2018/3/30 5:53,1.1,4,1.1,15,1.4,4
2018/3/30 5:54,1.1,5,1.2,4,1.8,8
2018/3/30 5:55,1.1,5,1.2,4,0.3,11
2018/3/30 5:56,0.9,5,1,4,1.1,14
2018/3/30 5:57,0.9,5,0.9,4,1.4,16
2018/3/30 5:58,0.8,4,0.9,4,1,12
2018/3/30 5:59,0.6,1,0.7,4,1,15
2018/3/30 6:00,0.5,15,0.6,6,0.6,14
2018/3/30 6:01,0.6,14,0.6,5,2,9
2018/3/30 6:02,0.5,13,0.6,5,0.6,11
2018/3/30 6:03,0.5,14,0.5,5,0.9,1
2018/3/30 6:04,0.7,15,0.7,5,3.8,3
2018/3/30 6:05,0.9,15,0.9,5,4.4,1
2018/3/30 6:06,0.9,1,0.9,5,1.9,4
2018/3/30 6:07,1.1,2,1.1,2,4.7,4
2018/3/30 6:08,1.2,2,1.2,2,3.1,2
2018/3/30 6:09,1.3,3,1.3,3,4.4,16
2018/3/30 6:10,1.5,3,1.5,3,4.3,3
2018/3/30 6:11,1.6,3,1.6,3,3.3,1
2018/3/30 6:12,1.9,2,1.9,2,3.9,2
2018/3/30 6:13,2,2,2,2,3.5,15
2018/3/30 6:14,2,2,2.1,2,3.7,16
2018/3/30 6:15,1.9,2,2,2,4.2,3
2018/3/30 6:16,2.1,1,2.1,2,5.5,3
2018/3/30 6:17,2.3,1,2.3,1,6.4,2
2018/3/30 6:18,2.5,2,2.5,2,5.4,4
2018/3/30 6:19,2.6,2,2.6,2,4.9,2
2018/3/30 6:20,2.5,2,2.6,2,3.8,6
2018/3/30 6:21,2.4,2,2.5,2,0.5,14
2018/3/30 6:22,2.3,2,2.3,2,4.1,10
2018/3/30 6:23,2.5,3,2.5,2,9.1,3
2018/3/30 6:24,2.6,3,2.6,2,9.2,16
2018/3/30 6:25,2.6,3,2.6,2,3.1,16
2018/3/30 6:26,2.4,2,2.5,2,2.9,15
2018/3/30 6:27,2.1,2,2.3,2,7,2
2018/3/30 6:28,2.1,2,2.2,2,9.4,16
2018/3/30 6:29,2,2,2.1,2,3.2,4
2018/3/30 6:30,2,2,2,3,2.9,3
2018/3/30 6:31,2,2,2,3,1.8,2
2018/3/30 6:32,1.9,2,2.1,3,1.3,3
2018/3/30 6:33,1.7,2,1.9,3,2,4
2018/3/30 6:34,1.5,3,1.6,3,2.7,4
2018/3/30 6:35,1.5,3,1.5,3,2.2,9
2018/3/30 6:36,1.5,3,1.5,2,3,1
2018/3/30 6:37,1.5,3,1.6,2,3.8,14
2018/3/30 6:38,1.5,3,1.5,2,6.1,1
2018/3/30 6:39,1.6,3,1.6,2,4.9,2
2018/3/30 6:40,1.7,3,1.7,2,3.1,3
2018/3/30 6:41,1.8,3,1.8,2,3.9,1
2018/3/30 6:42,2.1,2,2.1,2,7.7,14
2018/3/30 6:43,2.6,2,2.6,2,8.4,3
2018/3/30 6:44,2.8,2,2.8,2,5.7,3
2018/3/30 6:45,3.1,2,3.1,2,7.2,3
2018/3/30 6:46,3.7,2,3.7,2,10.6,4
2018/3/30 6:47,4,2,4,2,9.7,2
2018/3/30 6:48,4.3,3,4.3,3,8.4,1
2018/3/30 6:49,4.4,3,4.4,3,5.7,4
2018/3/30 6:50,4.4,3,4.4,3,4.3,4
2018/3/30 6:51,4.6,3,4.6,3,5.1,4
2018/3/30 6:52,4.6,4,4.7,3,6.3,5
2018/3/30 6:53,4.3,3,4.6,3,8.2,1
2018/3/30 6:54,4.3,4,4.4,3,7.8,3
2018/3/30 6:55,4.3,4,4.3,3,8.6,7
2018/3/30 6:56,4,4,4.2,3,4.4,7
2018/3/30 6:57,3.9,4,4,3,8.2,6
2018/3/30 6:58,3.9,4,4,3,9.7,4
2018/3/30 6:59,4,4,4,3,7.5,5
2018/3/30 7:00,4.2,4,4.2,3,7.8,3
2018/3/30 7:01,4.3,4,4.4,3,6.4,4
2018/3/30 7:02,4.3,5,4.3,4,5.6,6
2018/3/30 7:03,4.3,5,4.3,3,4.5,6
2018/3/30 7:04,4.5,5,4.5,5,9.1,6
2018/3/30 7:05,4.4,5,4.5,5,6,6
2018/3/30 7:06,4.2,5,4.4,5,4.1,7
2018/3/30 7:07,3.8,5,4.2,5,3.5,7
2018/3/30 7:08,3.4,5,3.8,5,2.7,15
2018/3/30 7:09,3,5,3.4,5,1.1,2
2018/3/30 7:10,2.7,6,3,5,4.3,4
2018/3/30 7:11,2.6,6,2.7,5,4.8,6
2018/3/30 7:12,2.6,6,2.7,5,4.7,6
2018/3/30 7:13,2.7,6,2.7,5,4.3,6
2018/3/30 7:14,2.3,5,2.6,5,4.5,4
2018/3/30 7:15,2.1,5,2.3,5,2.2,3
2018/3/30 7:16,2.1,5,2.1,5,2.5,6
2018/3/30 7:17,2.2,5,2.2,5,4.2,9
2018/3/30 7:18,2.4,6,2.4,5,3.9,8
2018/3/30 7:19,2.5,6,2.5,5,3.2,8
2018/3/30 7:20,2.5,6,2.6,6,2.9,8
2018/3/30 7:21,2.3,6,2.5,6,2.4,7
2018/3/30 7:22,2,6,2.3,6,2.1,5
2018/3/30 7:23,1.9,6,2,6,4.1,5
2018/3/30 7:24,1.9,6,2,6,4.9,1
2018/3/30 7:25,1.9,6,2,6,3.1,15
2018/3/30 7:26,2,6,2,6,5.2,6
2018/3/30 7:27,2.1,6,2.1,6,5,7
2018/3/30 7:28,2.2,5,2.2,6,5.5,5
2018/3/30 7:29,2.3,5,2.3,6,6.5,2
2018/3/30 7:30,2.5,4,2.5,6,5.6,2
2018/3/30 7:31,3,4,3,4,9.8,3
2018/3/30 7:32,3.4,3,3.4,3,9.4,3
2018/3/30 7:33,3.4,3,3.4,3,5.6,16
2018/3/30 7:34,3.3,3,3.4,3,5.8,1
2018/3/30 7:35,3.4,3,3.4,3,3,12
2018/3/30 7:36,3.2,3,3.4,3,1.8,4
2018/3/30 7:37,3,3,3.2,3,3,8
2018/3/30 7:38,2.9,3,3,3,3.8,8
2018/3/30 7:39,3,4,3,3,5.8,8
2018/3/30 7:40,3.1,5,3.1,3,6.9,7
2018/3/30 7:41,2.5,6,3.1,3,4.9,10
2018/3/30 7:42,2.2,7,2.5,3,2.9,8
2018/3/30 7:43,2.1,8,2.2,3,3.3,8
2018/3/30 7:44,2.1,8,2.1,3,3.9,9
2018/3/30 7:45,2.3,8,2.3,3,4.3,8
2018/3/30 7:46,2.6,8,2.6,3,4.4,7
2018/3/30 7:47,2.8,7,2.8,5,5.1,2
2018/3/30 7:48,2.8,7,2.8,5,4.8,16
2018/3/30 7:49,2.6,7,2.8,5,4.2,1
2018/3/30 7:50,2.3,6,2.5,5,3.7,1
2018/3/30 7:51,2.2,5,2.3,7,2,14
2018/3/30 7:52,2.3,5,2.4,7,4.3,7
2018/3/30 7:53,2.5,5,2.5,7,5.8,9
2018/3/30 7:54,2.6,5,2.6,7,5.6,10
2018/3/30 7:55,2.6,5,2.6,7,3.7,7
2018/3/30 7:56,2.5,5,2.5,7,5.6,4
2018/3/30 7:57,2.7,5,2.7,7,9.1,4
2018/3/30 7:58,3,5,3,5,7.8,4
2018/3/30 7:59,3.2,6,3.2,6,7.7,5
2018/3/30 8:00,3.3,6,3.3,6,6.7,6
2018/3/30 8:01,3.4,6,3.4,6,4.7,7
2018/3/30 8:02,3.3,6,3.4,6,1.9,4
2018/3/30 8:03,3.1,5,3.3,6,3,15
2018/3/30 8:04,3.1,5,3.1,6,4.9,16
2018/3/30 8:05,3,4,3.1,6,3.6,4
2018/3/30 8:06,3,4,3.1,6,5.5,1
2018/3/30 8:07,2.8,3,3,6,5.1,16
2018/3/30 8:08,2.5,3,2.7,6,4.3,3
2018/3/30 8:09,2.4,2,2.4,6,5.4,2
2018/3/30 8:10,2.2,2,2.4,6,3.1,16
2018/3/30 8:11,2,2,2.2,6,2.1,2
2018/3/30 8:12,2,1,2,6,1.1,16
2018/3/30 8:13,1.9,1,2,5,2,3
2018/3/30 8:14,1.7,1,1.9,5,1.4,1
2018/3/30 8:15,1.7,2,1.7,4,3.6,2
2018/3/30 8:16,1.7,2,1.7,4,4.3,3
2018/3/30 8:17,1.7,2,1.7,3,6.9,3
2018/3/30 8:18,1.8,2,1.8,3,5.6,3
2018/3/30 8:19,1.6,2,1.8,2,1.8,2
2018/3/30 8:20,1.5,2,1.6,2,1,12
2018/3/30 8:21,1.6,2,1.6,2,2.5,10
2018/3/30 8:22,1.6,3,1.6,1,2.1,8
2018/3/30 8:23,1.5,3,1.6,1,1,9
2018/3/30 8:24,1.7,4,1.7,2,4.1,7
2018/3/30 8:25,1.8,5,1.8,2,4.3,7
2018/3/30 8:26,1.8,6,1.9,5,3.7,5
2018/3/30 8:27,1.6,6,1.8,5,2.5,6
2018/3/30 8:28,1.4,7,1.6,5,1.8,9
2018/3/30 8:29,1.4,7,1.4,5,4.2,6
2018/3/30 8:30,1.6,6,1.6,5,3.3,6
2018/3/30 8:31,1.5,7,1.6,5,2.4,9
2018/3/30 8:32,1.5,7,1.6,5,1.3,7
2018/3/30 8:33,1.7,6,1.7,5,5.1,2
2018/3/30 8:34,1.9,6,1.9,5,6.8,2
2018/3/30 8:35,1.9,5,1.9,5,5.8,16
2018/3/30 8:36,2,4,2,5,4.9,16
2018/3/30 8:37,2.1,3,2.1,4,5.2,1
2018/3/30 8:38,2.3,4,2.3,4,4.8,6
2018/3/30 8:39,2.3,3,2.3,4,5.4,2
2018/3/30 8:40,2.7,2,2.7,2,10.1,16
2018/3/30 8:41,3,2,3,2,8.2,2
2018/3/30 8:42,3.4,2,3.4,2,6.8,16
2018/3/30 8:43,3.8,2,3.8,2,9,4
2018/3/30 8:44,3.8,2,3.9,2,12.8,3
2018/3/30 8:45,3.8,1,3.8,2,8.3,1
2018/3/30 8:46,4,2,4,1,7.8,1
2018/3/30 8:47,4,1,4,1,4.2,13
2018/3/30 8:48,3.9,1,4,1,3.6,12
2018/3/30 8:49,3.9,1,3.9,1,3.7,15
2018/3/30 8:50,3.6,16,3.9,1,6.8,15
2018/3/30 8:51,3.5,16,3.6,1,5.4,16
2018/3/30 8:52,3.8,16,3.8,1,11.1,1
2018/3/30 8:53,3.8,16,3.9,1,11.6,16
2018/3/30 8:54,3.7,15,3.8,1,8.1,15
2018/3/30 8:55,3.4,15,3.6,1,5.6,1
2018/3/30 8:56,3.3,15,3.4,1,5.1,16
2018/3/30 8:57,3.2,16,3.3,1,3.5,3
2018/3/30 8:58,3.3,16,3.3,1,3.6,3
2018/3/30 8:59,3.3,16,3.3,1,5.4,2
2018/3/30 9:00,3.4,1,3.4,16,8.7,1
2018/3/30 9:01,3.4,1,3.5,16,6.4,15
2018/3/30 9:02,3.1,1,3.4,16,4.9,3
2018/3/30 9:03,3,2,3,16,8.1,3
2018/3/30 9:04,3,2,3,15,5.7,15
2018/3/30 9:05,2.9,2,3,1,2.6,16
2018/3/30 9:06,2.8,2,2.9,1,2.4,15
2018/3/30 9:07,2.8,2,2.8,1,3.9,1
2018/3/30 9:08,2.6,2,2.7,1,2.9,6
2018/3/30 9:09,2.5,2,2.6,1,1.8,6
2018/3/30 9:10,2.1,3,2.5,1,2.4,9
2018/3/30 9:11,2.1,2,2.1,1,3.7,13
2018/3/30 9:12,2.1,2,2.1,1,5.7,1
2018/3/30 9:13,2,2,2.1,2,8.5,3
2018/3/30 9:14,2,2,2,2,6.5,16
2018/3/30 9:15,2.5,1,2.5,2,10.1,15
2018/3/30 9:16,3,16,3,16,8.7,13
2018/3/30 9:17,3.4,16,3.4,16,8.6,15
2018/3/30 9:18,3.7,15,3.7,16,6.9,1
2018/3/30 9:19,3.9,15,3.9,15,8.7,16
2018/3/30 9:20,4.2,16,4.2,16,9.5,1
2018/3/30 9:21,4.5,16,4.5,16,9.4,16
2018/3/30 9:22,4.9,16,4.9,16,13.9,16
2018/3/30 9:23,4.9,16,4.9,16,9.1,1
2018/3/30 9:24,5,16,5.1,16,8.2,2
2018/3/30 9:25,4.9,1,5,16,8.2,3
2018/3/30 9:26,4.6,1,4.9,16,5.8,2
2018/3/30 9:27,4.4,1,4.6,16,5.2,1
2018/3/30 9:28,4.4,2,4.4,16,7.5,1
2018/3/30 9:29,4.7,2,4.7,16,10,1
2018/3/30 9:30,4.8,2,4.8,16,9.2,1
2018/3/30 9:31,4.8,2,4.9,16,10.3,3
2018/3/30 9:32,4.8,2,4.9,16,10.6,3
2018/3/30 9:33,4.7,2,4.9,16,10.1,3
2018/3/30 9:34,4.6,2,4.7,16,5.2,16
2018/3/30 9:35,4.5,2,4.6,1,5.5,1
2018/3/30 9:36,4.8,1,4.8,2,12.5,16
2018/3/30 9:37,4.9,1,4.9,2,7.9,16
2018/3/30 9:38,4.9,1,4.9,2,7.4,16
2018/3/30 9:39,4.8,1,4.9,2,9.3,16
2018/3/30 9:40,4.9,1,5,1,9.7,16
2018/3/30 9:41,4.7,1,4.9,1,6.4,16
2018/3/30 9:42,4.4,16,4.7,1,7.4,16
2018/3/30 9:43,4.4,16,4.4,1,6.1,16
2018/3/30 9:44,4.6,16,4.6,1,8.4,1
2018/3/30 9:45,4.7,1,4.7,1,6,4
2018/3/30 9:46,4.4,1,4.7,1,9.4,1
2018/3/30 9:47,4.3,1,4.4,1,9.3,2
2018/3/30 9:48,4.4,1,4.5,1,11.9,2
2018/3/30 9:49,4.5,1,4.6,1,10.5,2
2018/3/30 9:50,4.1,1,4.5,1,5.6,1
2018/3/30 9:51,4.1,2,4.1,1,6.3,2
2018/3/30 9:52,4.3,2,4.3,1,9.3,3
2018/3/30 9:53,4.5,2,4.5,1,8.7,4
2018/3/30 9:54,4.4,2,4.5,1,7.4,2
2018/3/30 9:55,4.3,2,4.4,1,5.5,16
2018/3/30 9:56,4.1,2,4.3,1,3.8,2
2018/3/30 9:57,3.9,2,4.1,1,2.4,1
2018/3/30 9:58,3.7,2,3.9,1,6.4,1
2018/3/30 9:59,3.5,2,3.7,1,8.4,2
2018/3/30 10:00,3.8,2,3.8,2,10.2,1
2018/3/30 10:01,4.2,2,4.2,2,13.9,2
2018/3/30 10:02,4,2,4.2,2,9.8,1
2018/3/30 10:03,3.6,1,3.9,2,4.4,15
2018/3/30 10:04,3.5,1,3.6,2,5.5,2
2018/3/30 10:05,3.5,1,3.5,2,7,16
2018/3/30 10:06,4,1,4,2,12.7,2
2018/3/30 10:07,4.6,1,4.6,1,11.5,16
2018/3/30 10:08,4.6,1,4.6,1,7.7,3
2018/3/30 10:09,4.8,1,4.8,1,11.9,15
2018/3/30 10:10,4.8,1,4.8,1,10.2,16
2018/3/30 10:11,4.7,1,4.8,1,10.1,2
2018/3/30 10:12,4.9,1,4.9,1,15.4,1
2018/3/30 10:13,5,1,5,1,8.4,3
2018/3/30 10:14,5,2,5,1,6.9,1
2018/3/30 10:15,5.2,2,5.2,2,9.2,1
2018/3/30 10:16,5.2,2,5.3,2,10.6,16
2018/3/30 10:17,4.9,1,5.2,2,8.2,15
2018/3/30 10:18,4.9,1,4.9,2,5.6,1
2018/3/30 10:19,4.5,1,4.8,2,8.4,1
2018/3/30 10:20,4.6,1,4.7,2,9.8,1
2018/3/30 10:21,4.5,1,4.5,2,11.5,3
2018/3/30 10:22,4.5,2,4.5,2,9,3
2018/3/30 10:23,4.5,2,4.6,2,6.4,4
2018/3/30 10:24,4.7,2,4.7,2,9.9,3
2018/3/30 10:25,4.7,2,4.7,2,10,2
2018/3/30 10:26,4.7,2,4.8,1,10,2
2018/3/30 10:27,4.8,3,4.8,1,7.8,2
2018/3/30 10:28,4.9,3,4.9,3,9.9,2
2018/3/30 10:29,5.1,3,5.1,3,9,2
2018/3/30 10:30,5,3,5.1,3,7.4,1
2018/3/30 10:31,5,2,5.1,3,7.1,1
2018/3/30 10:32,4.8,2,4.9,3,5.5,1
2018/3/30 10:33,4.7,2,4.8,3,6.1,2
2018/3/30 10:34,4.6,2,4.8,3,6.5,1
2018/3/30 10:35,4.5,2,4.5,3,11.8,1
2018/3/30 10:36,4.2,2,4.5,3,9.5,15
2018/3/30 10:37,4.3,2,4.3,3,6.8,4
2018/3/30 10:38,4.1,2,4.3,3,6.8,4
2018/3/30 10:39,4.1,2,4.1,3,7.1,4
2018/3/30 10:40,4.2,2,4.2,3,8.6,3
2018/3/30 10:41,4.2,2,4.3,2,8.3,16
2018/3/30 10:42,4.1,2,4.2,2,6.8,1
2018/3/30 10:43,3.9,2,4.1,2,2.4,4
2018/3/30 10:44,3.8,3,3.8,2,9,4
2018/3/30 10:45,3.7,3,3.8,2,8.7,3
2018/3/30 10:46,3.7,3,3.7,2,7.8,3
2018/3/30 10:47,3.8,3,3.8,2,7.8,1
2018/3/30 10:48,4.1,2,4.1,2,10.3,1
2018/3/30 10:49,4.2,2,4.3,2,11.8,1
2018/3/30 10:50,4.1,2,4.2,2,7.2,3
2018/3/30 10:51,4,3,4.1,2,7,4
2018/3/30 10:52,4,3,4,2,9.3,4
2018/3/30 10:53,4.1,2,4.1,2,8.1,3
2018/3/30 10:54,4,2,4.2,2,4.7,6
2018/3/30 10:55,3.8,2,4,2,3.9,5
2018/3/30 10:56,3.5,3,3.7,2,5,6
2018/3/30 10:57,3.4,3,3.5,2,4.4,3
2018/3/30 10:58,3,3,3.3,2,5,3
2018/3/30 10:59,2.6,3,2.9,2,3.8,2
2018/3/30 11:00,2.6,3,2.6,2,7.6,3
2018/3/30 11:01,2.6,3,2.6,2,7.5,3
2018/3/30 11:02,2.6,3,2.7,2,5.2,3
2018/3/30 11:03,2.7,3,2.7,2,6.5,1
2018/3/30 11:04,2.9,3,2.9,2,7.8,3
2018/3/30 11:05,3.2,3,3.2,2,8.2,3
2018/3/30 11:06,3.4,3,3.4,3,5.6,2
2018/3/30 11:07,3.5,3,3.5,3,5.5,5
2018/3/30 11:08,3.6,3,3.6,3,7.6,3
2018/3/30 11:09,3.8,3,3.8,3,10,3
2018/3/30 11:10,3.7,3,3.9,3,5.5,4
2018/3/30 11:11,3.6,3,3.7,3,5.2,3
2018/3/30 11:12,3.8,2,3.8,3,8.1,16
2018/3/30 11:13,4.1,2,4.1,2,10.1,1
2018/3/30 11:14,4.2,3,4.2,3,7.5,3
2018/3/30 11:15,4.2,3,4.2,3,7.6,3
2018/3/30 11:16,4.4,3,4.4,3,10.3,2
2018/3/30 11:17,4.2,2,4.4,3,4.2,14
2018/3/30 11:18,4.1,2,4.2,3,7.5,4
2018/3/30 11:19,3.8,2,4.1,3,4.5,3
2018/3/30 11:20,3.7,2,3.8,3,3.8,3
2018/3/30 11:21,3.6,3,3.7,3,3.5,2
2018/3/30 11:22,3.3,3,3.6,3,2.7,5
2018/3/30 11:23,3,3,3.2,3,4.7,2
2018/3/30 11:24,2.7,3,3,3,5.5,1
2018/3/30 11:25,2.6,3,2.8,3,5.1,16
2018/3/30 11:26,2.3,3,2.5,3,5.4,14
2018/3/30 11:27,2.2,3,2.3,2,3.7,10
2018/3/30 11:28,2.1,3,2.2,2,5.6,10
2018/3/30 11:29,2.2,2,2.2,2,6.7,14